FW3585 Weather Reports


Display with metric or nautical units.
time (UTC)temp
F
wind
direction
speed
MPH
gust
MPH
rain 1hr
in
rain 24hr
in
rain mn
in
humidity
%
barometer
mb
20260510030056 65 199 0.0 3.0 0.00 0.00 0.00 74 1011.9
20260510024559 65 197 0.0 3.0 0.00 0.00 0.00 74 1011.9
20260510023056 66 253 0.0 6.0 0.00 0.00 0.00 73 1011.7
20260510021555 66 222 3.0 5.0 0.00 0.00 0.00 72 1011.6
20260510020055 67 192 3.0 6.0 0.00 0.00 0.00 71 1011.2
20260510014554 67 221 4.0 7.0 0.00 0.00 0.00 71 1010.9
20260510013055 67 202 2.0 6.0 0.00 0.00 0.00 69 1010.6
20260510011556 68 192 0.0 2.0 0.00 0.00 0.00 65 1010.2
20260510010053 69 190 0.0 2.0 0.00 0.00 0.00 64 1010.0
20260510004552 69 190 0.0 3.0 0.00 0.00 0.00 62 1009.9
20260510003151 70 181 1.0 4.0 0.00 0.00 0.00 60 1009.7
20260510001550 71 181 1.0 4.0 0.00 0.00 0.00 58 1009.6
20260510000053 72 199 0.0 5.0 0.00 0.00 0.00 56 1009.3
20260509234601 73 214 1.0 4.0 0.00 0.00 0.00 55 1009.3
20260509233049 73 225 2.0 5.0 0.00 0.00 0.00 54 1009.0
20260509231553 73 214 5.0 8.0 0.00 0.00 0.00 53 1008.9
20260509230056 74 237 3.0 5.0 0.00 0.00 0.00 53 1008.8
20260509224547 75 227 3.0 12.0 0.00 0.00 0.00 51 1008.9
20260509223049 74 213 3.0 11.0 0.00 0.00 0.00 52 1008.9
20260509221547 76 227 2.0 7.0 0.00 0.00 0.00 51 1009.0
20260509220046 75 222 3.0 6.0 0.00 0.00 0.00 50 1008.8
20260509214546 75 240 3.0 11.0 0.00 0.00 0.00 51 1008.8
20260509213046 76 214 9.0 17.0 0.00 0.00 0.00 49 1008.7
20260509211544 75 295 8.0 13.0 0.00 0.00 0.00 49 1008.6
20260509210049 74 200 2.0 11.0 0.00 0.00 0.00 50 1008.5
20260509204543 74 197 5.0 15.0 0.00 0.00 0.00 50 1008.6
20260509203041 75 232 8.0 14.0 0.00 0.00 0.00 48 1008.7
20260509201541 75 255 2.0 12.0 0.00 0.00 0.00 52 1008.6
20260509200041 75 189 4.0 15.0 0.00 0.00 0.00 50 1008.6
20260509194537 74 246 3.0 14.0 0.00 0.00 0.00 54 1008.7
20260509193032 73 227 5.0 12.0 0.00 0.00 0.00 52 1009.1
20260509191532 72 228 5.0 16.0 0.00 0.00 0.00 55 1009.2
20260509190031 71 183 6.0 15.0 0.00 0.00 0.00 55 1009.4
20260509184528 71 178 3.0 13.0 0.00 0.00 0.00 53 1009.5
20260509183028 72 182 7.0 15.0 0.00 0.00 0.00 52 1009.8
20260509181539 72 223 9.0 16.0 0.00 0.00 0.00 54 1009.9
20260509180022 70 223 12.0 18.0 0.00 0.00 0.00 56 1010.3
20260509174622 71 229 13.0 22.0 0.00 0.01 0.00 59 1010.4
20260509173023 69 236 4.0 17.0 0.00 0.01 0.00 63 1010.7
20260509171514 69 202 10.0 19.0 0.00 0.01 0.00 63 1010.8
20260509170012 68 350 5.0 13.0 0.00 0.01 0.00 65 1010.9
20260509164512 68 209 6.0 17.0 0.00 0.01 0.00 64 1011.1
20260509163009 68 214 9.0 16.0 0.00 0.01 0.00 64 1011.1
20260509161507 68 197 3.0 15.0 0.00 0.01 0.00 66 1011.1
20260509160008 67 236 9.0 21.0 0.00 0.01 0.00 64 1011.3
20260509154504 67 232 4.0 10.0 0.00 0.01 0.00 66 1011.5
20260509153001 67 313 10.0 17.0 0.00 0.01 0.00 66 1011.2
20260509151559 66 111 4.0 10.0 0.00 0.01 0.00 67 1011.6
20260509150055 64 188 7.0 12.0 0.00 0.01 0.00 68 1012.0
20260509144551 63 244 6.0 19.0 0.00 0.01 0.00 69 1012.2
20260509143049 63 205 6.0 11.0 0.00 0.01 0.00 69 1012.2
20260509141544 61 175 3.0 8.0 0.00 0.01 0.00 71 1011.8
20260509140043 60 185 3.0 10.0 0.00 0.01 0.00 71 1012.2
20260509134534 58 170 4.0 10.0 0.00 0.01 0.00 72 1012.7
20260509133034 58 177 3.0 10.0 0.00 0.01 0.00 72 1012.7
20260509131530 57 160 2.0 6.0 0.00 0.01 0.00 73 1012.8
20260509130029 55 146 3.0 7.0 0.00 0.01 0.00 77 1013.0
20260509124525 54 175 1.0 7.0 0.00 0.01 0.00 78 1013.1
20260509123025 52 136 3.0 5.0 0.00 0.01 0.00 78 1013.0
20260509121525 51 142 2.0 7.0 0.00 0.01 0.00 77 1012.9
20260509120018 51 152 2.0 6.0 0.00 0.01 0.00 78 1013.0
20260509114512 50 151 3.0 7.0 0.00 0.01 0.00 78 1013.0
20260509113008 50 151 3.0 7.0 0.00 0.01 0.00 77 1013.2
20260509111506 49 146 3.0 6.0 0.00 0.01 0.00 77 1013.1
20260509110002 49 146 3.0 6.0 0.00 0.01 0.00 77 1012.5
20260509104559 49 134 2.0 8.0 0.00 0.01 0.00 77 1012.6
20260509103101 48 142 3.0 7.0 0.00 0.01 0.00 77 1012.7
20260509101557 48 165 4.0 8.0 0.00 0.01 0.00 76 1012.8
20260509100053 48 140 4.0 7.0 0.00 0.01 0.00 75 1012.7
20260509094549 49 146 3.0 7.0 0.00 0.02 0.00 75 1012.7
20260509093055 49 138 4.0 8.0 0.00 0.02 0.00 74 1012.8
20260509091547 49 146 2.0 4.0 0.00 0.02 0.00 73 1012.9
20260509090044 50 145 1.0 4.0 0.00 0.02 0.00 73 1013.1
20260509084550 50 145 3.0 5.0 0.00 0.02 0.00 71 1013.0
20260509083040 50 142 3.0 6.0 0.00 0.02 0.00 71 1012.8
20260509081542 51 167 1.0 3.0 0.00 0.02 0.00 70 1012.8
20260509080049 51 167 1.0 5.0 0.00 0.02 0.00 70 1012.9
20260509074537 51 145 0.0 0.0 0.00 0.02 0.00 69 1013.1
20260509073035 52 145 0.0 0.0 0.00 0.02 0.00 68 1013.3
20260509071530 52 145 0.0 0.0 0.00 0.02 0.00 65 1013.3
20260509070028 52 145 0.0 2.0 0.00 0.02 0.00 64 1013.4
20260509064526 53 145 1.0 3.0 0.00 0.02 0.00 64 1013.6
20260509063022 54 144 2.0 4.0 0.00 0.02 0.00 63 1013.6
20260509061519 54 169 0.0 2.0 0.00 0.02 0.00 61 1014.1
20260509060020 54 169 0.0 1.0 0.00 0.02 0.00 60 1014.3
20260509054518 54 169 0.0 1.0 0.00 0.02 0.00 60 1014.3
20260509053021 55 169 0.0 3.0 0.00 0.02 0.00 59 1014.5
20260509051513 55 169 1.0 5.0 0.00 0.02 0.00 59 1014.6
20260509050014 55 148 2.0 3.0 0.00 0.02 0.00 59 1014.3
20260509044510 55 147 2.0 4.0 0.00 0.02 0.00 58 1014.3
20260509043009 56 147 2.0 5.0 0.00 0.02 0.00 56 1014.2
20260509041509 56 144 3.0 5.0 0.00 0.02 0.00 55 1014.2
20260509040002 57 166 2.0 3.0 0.00 0.02 0.00 55 1014.3
20260509034602 57 166 2.0 5.0 0.00 0.02 0.02 54 1014.5
20260509034500 57 167 2.0 5.0 0.00 0.02 0.02 54 1014.5
20260509033116 57 152 2.0 5.0 0.00 0.02 0.02 53 1014.5
20260509031605 58 165 2.0 6.0 0.00 0.02 0.02 52 1014.6